Вернуться в каталог

SWARM A

АктивенНаукаPO
NORAD 39452·PAYLOAD·🇪🇺 EU

Запущен Nov 22, 2013 с Plesetsk Cosmodrome

Loading…

Ближайшие Пролёты (ближайшие 24 часа)

TLE

СвежийSource: CelesTrak SupGP

Эпоха: Sep 14, 2026, 00:00 UTC

1 39452C 13067B   26257.00000000  .00009712  00000+0  16923-3 0  2571
2 39452  87.3358  23.2416 0002407 111.6300 154.7793 15.50749622    10

Отслеживайте SWARM A в реальном времени с AllMySat

Download on the App Store